View from above orbital plane
|
View from above satellite
|
Ground track
|
The orbit data is extracted from the following two-line orbital elements,
1 25861U 99039B 21060.50450328 .00000024 00000-0 10771-4 0 9994
2 25861 98.2097 73.7504 0016699 55.3283 96.8891 14.78623148165605
Epoch (UTC): | 01 March 2021 12:06:29 |
Eccentricity: | 0.0016699 |
inclination: | 98.2097° |
perigee height: | 622 km |
apogee height: | 645 km |
right ascension of ascending node: | 73.7504° |
argument of perigee: | 55.3283° |
revolutions per day: | 14.78623148 |
mean anomaly at epoch: | 96.8891° |
orbit number at epoch: | 16560 |
The dashed part of the orbit path shows where the satellite is in the earth's shadow,
|
|